Starlink 32121

operational
NORAD ID: 60264 Int'l Des: 2024-131 Owner: SPXS Country: US Constellation: starlink
LEOCIRCULAR

关于 Starlink 32121

正在加载描述...

实时位置

正在加载3D地球...

即将过境

高度历史

Altitude vs Time

uPlot chart will show altitude changes over time

两行轨道根数

1 60264U 24131K 25350.97429091 -.00000723 00000-0 -12283-4 0 9999
2 60264 53.1610 76.7009 0001322 80.0284 280.0866 15.30194085 79108
Epoch: Dec 16, 2025 • Age: 8 hours

当前状态

高度 476.5 km
速度 7.63 km/s
星下点 31.48°N, 94.85°W
发射日期 Jul 27, 2024
运行时间 1.3 years
类型 internet

技术详情

分类 Payload
质量 730.00 kg
干质量 700.00 kg
总质量 730.00 kg
长度 0.30 m
直径 4.10 m
跨度 29.00 m
形状 Box + pan
制造商 SPXS
平台类型 Starlink V2M
阶段状态 In Orbit
所有者/国家 SPXS/US

大型星座

Loading constellations...